Temperature
13 13 13 14 17 18 19 20 19 19 19 19 19 20 21 22 22 21 17 17 17 17 17 17 17 17 17 17 17 17 17 17 17 17 17 17 17 16 16 16 16 16 16 16 16 16 16 16 16
12 13 13 15 18 18 19 19 18 19 18 17 18 18 20 20 19 17 16 17 17 17 16 16 16 16 16 16 17 17 17 16 17 17 17 17 17 16 16 16 16 16 16 16 16 16 16 16 16
12 12 14 16 17 19 20 18 18 18 16 17 18 18 19 19 17 16 16 16 16 16 16 16 16 16 16 16 16 16 16 16 16 16 16 16 16 16 16 16 16 16 16 16 16 16 16 16 16
11 12 14 16 17 18 18 17 17 17 16 16 17 18 17 15 15 15 16 16 16 16 16 16 16 16 16 16 16 16 16 16 16 16 16 16 16 16 16 16 16 16 16 16 16 16 15 16 16
11 13 15 15 16 17 16 16 15 17 17 16 16 18 17 15 15 15 16 16 16 16 16 16 16 16 16 16 16 16 16 16 16 16 16 16 16 16 16 16 16 16 16 16 16 16 15 15 15
12 14 15 16 16 15 15 14 15 16 16 16 16 17 17 14 15 15 15 15 15 15 15 16 16 16 16 16 16 16 16 16 16 16 16 16 16 16 16 16 16 16 16 15 15 15 15 15 15
12 14 15 16 16 15 15 14 15 16 16 16 15 16 16 14 14 15 15 15 15 15 15 15 15 16 16 16 16 16 16 16 16 16 16 16 16 16 16 16 16 16 15 15 15 15 15 15 15
11 13 14 14 14 15 14 13 13 14 15 14 14 15 16 14 14 14 14 14 14 15 15 15 15 15 15 15 15 16 16 16 15 16 16 15 15 15 15 15 15 15 15 15 15 15 15 15 15
10 12 13 14 14 14 13 13 13 12 13 13 13 13 13 13 13 13 14 14 14 14 15 15 15 15 15 15 15 15 15 15 15 15 15 15 15 15 15 15 15 15 15 15 15 15 15 15 15
11 12 13 13 13 13 12 12 12 12 13 13 13 12 12 12 12 12 13 13 14 14 14 15 15 15 15 15 15 15 15 15 15 15 15 15 15 15 15 15 15 15 15 15 15 15 15 15 14
11 12 12 11 11 11 11 11 11 12 13 13 13 12 12 11 12 12 12 13 13 13 14 14 14 15 15 15 14 15 15 15 15 15 15 15 15 15 15 15 15 15 15 14 15 14 14 14 14
10 10 10 10 10 10 11 11 11 11 12 12 11 11 10 11 11 12 12 12 12 13 13 14 14 14 14 14 14 14 14 15 15 15 15 14 14 14 14 14 14 14 14 14 14 14 14 14 14
10 10 9 9 9 9 9 10 10 10 10 10 10 10 10 10 11 11 11 12 12 12 13 13 13 14 14 14 14 14 14 14 14 14 14 14 14 14 14 14 14 14 14 14 14 14 14 14 14
10 9 9 9 9 9 10 10 10 10 10 10 10 10 10 10 10 11 11 11 12 12 12 13 13 13 14 14 14 14 14 14 14 14 14 14 14 14 14 14 14 14 14 14 14 14 14 14 14
9 9 10 10 10 10 10 10 11 10 10 10 10 10 10 10 10 10 11 11 11 12 12 12 13 13 13 13 13 13 14 14 14 14 14 14 14 14 14 14 14 14 14 14 14 13 13 13 13
9 10 10 11 10 10 10 11 12 10 10 10 10 10 10 10 10 10 10 10 11 11 12 12 12 13 13 13 13 13 13 13 13 13 13 14 14 13 13 13 13 13 13 13 13 13 13 13 13
9 10 10 10 10 10 10 10 11 10 10 10 10 10 9 9 9 9 10 10 11 11 11 12 12 12 12 12 12 12 12 13 13 13 13 13 13 13 13 13 13 13 13 13 13 13 13 13 13
9 10 10 10 10 10 10 10 11 10 10 10 10 9 9 9 9 9 9 10 10 11 11 11 11 12 12 12 12 12 12 12 12 13 13 13 13 13 13 13 13 13 13 13 13 13 12 12 12
9 9 10 10 10 10 10 10 10 10 10 10 9 9 9 8 8 9 9 9 10 10 10 10 11 11 11 11 11 11 11 12 12 12 13 12 13 13 12 12 12 12 12 12 12 12 12 12 12
9 9 9 10 10 10 10 10 10 10 10 9 9 9 8 8 8 8 8 9 9 9 10 10 10 10 11 11 11 11 11 11 11 12 12 12 12 12 12 12 12 12 12 12 12 12 11 11 11
8 9 9 9 9 9 9 10 10 10 9 9 9 8 8 8 7 8 8 8 8 9 9 9 9 10 10 10 10 10 10 11 11 11 11 11 11 11 12 12 12 12 12 12 12 12 11 11 11
9 9 9 9 9 9 9 10 10 10 10 9 9 8 8 8 7 7 7 8 8 8 9 9 9 9 10 10 10 10 10 10 10 10 11 11 11 11 11 11 11 11 11 11 11 11 11 11 10
9 9 8 8 8 9 9 9 10 10 9 9 9 8 7 7 7 7 7 7 7 8 8 8 9 9 9 9 10 9 10 10 10 10 10 10 10 11 11 11 11 11 11 11 11 11 11 10 10
8 8 8 8 9 9 9 9 10 10 9 9 9 8 7 6 6 6 6 7 7 7 8 8 8 9 9 9 9 9 9 9 9 9 9 10 10 10 10 10 10 10 10 10 10 10 10 10 10
8 8 9 9 10 10 9 9 10 10 9 8 8 7 6 6 6 6 6 6 6 7 7 7 8 8 8 8 9 9 9 9 9 9 9 9 9 9 10 10 10 10 10 10 10 10 10 9 9
8 8 9 10 11 11 9 10 10 9 8 7 7 6 6 6 5 5 5 6 6 6 7 7 7 7 8 8 8 8 8 8 8 9 9 9 9 9 9 9 9 9 9 9 9 9 9 9 9
8 8 8 9 9 10 11 10 10 9 8 7 7 6 6 5 5 5 5 5 6 6 6 6 6 7 7 7 7 8 8 8 8 8 8 8 8 8 8 8 8 9 9 9 8 8 8 8 8
8 8 8 8 10 11 11 11 11 9 8 8 7 6 6 5 5 5 5 5 5 5 6 6 6 7 7 7 7 7 8 8 8 8 8 8 8 8 8 8 8 8 8 8 8 8 8 7 7
8 8 8 8 9 10 11 12 10 9 9 8 7 6 6 5 5 5 5 5 5 5 5 5 6 6 6 7 7 7 7 7 7 7 7 7 7 7 8 8 7 7 7 8 7 7 7 7 7
8 8 8 8 8 9 10 11 9 9 8 8 7 6 5 5 4 4 5 5 5 5 5 5 5 6 6 6 6 6 7 6 7 7 7 7 7 7 7 7 7 7 7 7 7 7 6 6 6
Wind_Speed
3 2 2 4 6 7 13 10 7 7 6 5 4 5 6 6 4 1 4 6 5 1 6 12 14 15 16 15 15 15 16 17 17 17 17 17 16 16 15 14 14 14 14 14 14 14 14 14 13
1 1 4 5 8 11 10 10 12 8 3 2 4 6 6 5 1 3 4 7 5 1 5 9 12 15 16 15 15 15 16 17 17 16 17 17 16 16 15 14 14 14 14 14 14 14 13 13 12
1 1 5 6 8 12 7 5 8 6 3 3 4 4 5 2 1 3 6 7 3 1 5 8 11 14 15 15 15 16 16 16 16 16 17 17 16 16 16 15 14 13 13 13 13 13 13 12 12
3 4 4 8 14 11 6 3 4 6 4 4 4 4 2 1 3 5 7 5 2 1 4 8 10 12 14 16 16 16 16 16 16 16 17 17 16 16 16 15 14 14 13 13 13 13 12 11 11
3 5 7 10 13 8 6 4 4 6 5 3 5 5 4 1 3 5 6 5 2 1 3 7 10 10 12 15 16 16 16 16 16 16 16 17 16 16 16 15 14 14 13 13 13 12 12 10 10
5 5 8 13 12 7 7 6 6 7 6 4 4 7 4 1 4 6 6 5 3 2 3 5 9 9 11 14 16 16 16 16 16 16 16 16 16 16 16 15 15 14 14 13 13 12 11 10 9
6 6 8 10 9 8 6 5 8 8 8 6 3 5 4 2 4 6 6 5 4 2 3 4 8 10 11 12 15 15 16 16 16 15 16 15 16 16 16 16 15 15 14 13 13 12 11 10 9
3 4 7 8 8 7 4 4 4 6 7 4 4 6 4 2 6 7 6 5 4 3 3 4 6 8 9 11 14 15 15 15 16 15 15 15 15 15 16 16 15 15 14 13 13 12 10 9 9
3 6 9 8 6 4 4 4 3 3 6 6 7 8 7 8 9 8 7 6 5 4 3 4 5 7 8 9 11 14 15 15 15 15 15 15 14 15 15 15 15 14 14 13 13 12 11 9 9
6 8 8 4 4 3 3 4 4 4 8 9 9 8 8 9 9 9 8 8 7 6 5 5 6 6 7 7 8 10 12 13 14 13 14 14 12 12 12 14 15 15 14 13 12 12 11 10 8
6 7 5 5 4 4 5 6 6 7 10 10 9 9 9 9 9 10 10 9 8 7 6 6 6 7 7 6 7 7 8 10 12 13 14 12 11 10 11 11 12 13 13 12 12 12 10 9 7
5 6 6 5 4 5 7 6 7 10 11 9 10 10 11 11 10 10 11 10 9 8 8 7 7 6 7 7 6 7 6 7 8 11 13 11 8 8 9 8 10 11 11 10 10 9 10 9 9
7 5 6 7 7 8 9 11 11 13 13 12 11 11 11 11 11 10 10 11 10 9 8 8 7 8 7 7 6 7 7 7 8 10 12 12 9 8 8 7 9 10 10 10 9 9 9 8 8
6 6 6 7 8 7 10 11 10 11 9 9 9 10 10 10 10 10 9 10 9 9 8 7 8 8 8 7 7 7 7 7 8 9 11 12 10 9 8 8 8 9 10 10 9 9 8 7 7
4 5 6 6 7 5 6 10 10 11 9 9 9 9 9 9 9 9 9 9 9 8 7 7 8 8 8 7 8 6 6 7 7 7 10 12 11 10 9 8 8 8 10 10 9 9 8 6 7
4 4 4 2 4 4 6 9 5 5 7 8 8 7 7 7 7 7 7 7 7 7 7 6 6 7 7 7 6 5 6 6 6 6 7 11 12 11 9 8 8 9 9 8 7 7 7 7 7
4 4 4 2 3 4 6 8 6 5 6 6 6 5 5 5 6 5 5 5 6 6 6 6 6 6 7 6 5 4 4 4 4 5 4 7 10 11 9 8 8 9 7 7 7 7 7 7 7
4 4 4 4 2 4 7 9 8 6 5 5 5 5 4 4 5 5 4 4 4 4 4 5 4 4 5 5 4 4 4 3 3 3 4 5 7 9 8 7 8 8 7 7 7 8 7 7 6
3 4 5 5 3 4 8 10 9 6 5 5 4 4 3 4 4 4 4 3 3 2 2 3 3 3 3 4 4 4 4 3 3 3 3 4 4 6 7 6 7 7 7 8 8 7 7 6 5
4 5 5 4 3 5 7 10 8 6 5 4 4 4 3 4 4 3 4 3 3 2 2 2 2 2 2 3 3 3 3 3 2 2 2 3 3 4 5 7 7 7 7 8 8 7 6 6 5
6 7 6 5 5 4 6 7 5 4 4 3 3 3 3 2 3 3 3 3 3 3 2 1 1 1 2 3 3 2 2 2 2 2 2 2 3 4 4 5 6 7 7 7 8 8 9 7 7
4 4 6 6 5 2 3 4 4 4 3 2 2 2 2 2 2 2 3 3 3 3 2 2 1 1 1 2 3 4 4 3 3 3 2 3 3 4 4 5 5 6 6 7 8 8 7 7 7
3 3 5 5 4 4 4 4 3 3 3 2 2 2 2 2 2 2 3 3 3 4 3 3 2 2 1 2 2 3 3 3 2 2 2 2 2 2 3 4 4 5 5 7 7 8 8 8 8
3 2 2 3 3 3 3 4 3 2 3 2 2 3 3 3 2 2 3 3 4 4 4 3 3 3 2 2 2 3 3 3 3 2 2 2 1 2 2 3 3 4 5 6 6 7 9 8 9
2 2 2 2 3 2 0 4 3 2 2 2 2 3 3 2 3 3 3 3 4 4 4 4 4 4 3 2 1 2 3 3 3 3 2 2 2 2 2 3 3 3 4 5 6 6 7 8 9
2 2 2 2 2 1 2 3 2 1 1 1 2 2 1 2 2 3 3 3 4 4 4 4 4 4 3 3 2 1 1 2 2 2 2 2 2 2 3 3 3 4 4 4 5 5 6 7 8
1 1 2 2 2 3 2 2 3 1 1 1 1 1 1 1 1 2 3 3 4 4 4 4 4 3 3 3 2 2 1 1 1 1 1 1 2 2 3 3 3 4 4 4 4 4 5 6 7
1 1 2 2 2 2 2 3 2 3 3 2 2 1 1 1 1 2 2 3 4 4 4 4 3 3 3 4 3 2 2 1 0 0 0 1 1 2 3 3 3 4 4 4 4 4 5 6 7
1 1 1 2 3 3 2 1 1 3 3 4 3 2 2 2 1 1 2 3 4 4 4 5 5 5 4 4 3 3 3 2 1 1 1 1 2 3 3 3 4 4 4 4 4 5 5 6 7
2 2 2 3 2 3 3 2 3 2 2 4 4 3 3 2 1 0 1 2 3 4 4 4 4 5 4 4 4 3 3 2 2 1 1 1 2 2 3 3 3 4 3 4 4 5 6 6 7
Wind_Direction
332 302 209 185 195 221 233 222 216 202 203 209 220 227 230 226 227 95 37 13 350 279 180 170 176 173 170 168 164 161 162 163 164 164 163 162 160 158 155 151 150 148 144 140 137 132 128 123 119
320 212 182 193 217 224 229 220 215 207 186 213 218 228 229 229 324 8 9 354 340 277 177 170 170 174 172 170 167 164 165 166 167 168 167 166 164 162 158 155 153 151 147 144 139 134 131 128 126
162 203 189 196 220 229 226 201 213 205 214 220 208 224 239 236 6 360 357 340 331 210 178 163 164 174 174 174 172 170 168 170 171 171 170 169 168 166 162 159 157 153 149 145 141 138 137 135 132
178 169 194 221 226 229 238 187 193 202 207 226 235 221 206 39 358 352 348 344 334 201 182 167 167 173 175 176 177 176 174 174 175 175 174 172 171 169 165 163 160 155 152 149 145 143 142 140 139
180 185 202 224 232 227 227 222 209 212 205 211 240 240 227 116 357 353 350 349 335 247 196 177 171 173 174 177 178 179 181 181 179 179 179 177 174 171 168 163 160 158 157 155 153 151 149 147 148
175 196 213 226 225 222 222 225 229 230 226 231 251 251 244 167 352 349 345 341 328 274 216 191 180 179 178 181 180 183 185 185 184 182 182 181 177 174 169 165 163 162 163 162 159 158 156 155 155
197 202 225 231 229 223 215 220 231 236 235 236 255 254 235 223 346 337 331 330 321 287 234 210 196 191 185 184 181 182 186 186 184 183 183 182 179 175 171 168 167 167 167 166 164 163 162 163 162
211 208 221 225 228 225 197 208 236 249 253 262 248 245 238 310 331 325 321 319 311 283 246 227 212 207 201 196 188 186 186 189 188 186 182 180 178 178 174 173 171 171 171 170 169 168 167 168 168
193 217 225 218 219 215 191 218 234 268 260 257 251 262 284 307 312 311 308 304 300 289 260 239 224 217 210 205 193 190 188 190 190 189 182 182 188 188 182 181 172 174 175 174 174 173 172 173 174
199 223 228 216 218 211 214 243 259 255 253 256 257 263 283 294 296 293 291 289 286 285 268 244 232 224 217 209 199 198 196 195 199 198 193 196 195 192 188 179 175 177 178 178 178 178 177 187 187
204 228 224 218 227 244 251 259 258 256 256 257 265 279 290 293 289 283 279 276 274 277 272 250 238 228 220 213 206 199 198 197 202 202 198 197 194 191 188 183 182 185 185 188 184 186 193 199 197
207 225 230 228 233 248 258 263 259 250 258 277 282 284 283 283 282 277 274 272 271 271 268 258 240 232 224 216 210 204 200 197 199 200 199 196 193 193 190 190 190 192 194 196 194 198 200 205 207
214 223 234 248 255 259 264 261 265 262 270 278 279 276 273 274 276 275 273 270 265 262 264 265 244 232 225 220 212 206 203 201 203 200 201 199 195 194 192 194 192 195 195 196 198 203 204 210 215
218 233 254 260 254 252 257 264 258 264 273 274 275 273 273 271 274 279 278 271 263 258 259 264 251 231 223 221 215 208 203 197 199 199 200 200 198 196 193 195 195 197 198 199 203 206 209 214 219
218 237 251 249 244 242 256 261 249 265 274 275 276 275 275 273 273 273 276 272 265 259 257 260 247 228 219 220 218 207 201 199 200 197 202 202 200 199 197 198 197 199 200 202 205 209 213 218 223
203 221 234 232 232 221 235 266 275 285 278 276 278 278 277 278 277 276 278 279 275 267 257 260 243 224 214 214 212 204 199 199 200 192 198 203 200 197 196 198 200 199 198 202 205 209 215 220 227
194 223 245 255 224 219 229 270 292 306 285 278 279 279 282 288 291 289 283 283 282 272 261 257 245 228 215 207 197 190 193 198 195 185 192 204 203 199 197 201 201 197 198 203 205 209 215 221 227
208 226 239 246 235 238 247 270 291 301 292 284 282 279 285 294 297 298 295 293 288 279 268 258 244 227 209 197 184 180 186 192 183 180 185 200 203 201 200 202 202 198 199 203 205 209 215 224 227
237 241 256 265 263 265 260 276 287 295 294 287 284 281 295 301 308 319 317 310 313 317 280 256 239 231 201 185 186 190 192 185 180 177 171 188 199 199 198 200 201 201 203 204 206 208 212 221 221
236 246 257 278 272 263 275 283 283 290 286 281 275 279 293 310 327 334 342 346 344 342 313 271 237 230 201 196 196 194 185 178 167 174 171 189 197 199 202 205 205 202 204 207 207 206 210 216 208
240 240 255 275 295 254 280 277 269 282 280 288 289 275 280 290 304 319 343 356 357 351 337 308 294 239 194 175 160 153 161 179 190 189 192 200 200 204 204 211 207 208 209 210 211 208 210 214 212
254 252 255 263 271 266 276 282 273 289 276 285 295 288 299 305 302 330 357 9 2 351 354 352 23 58 141 153 158 173 185 194 206 198 196 198 202 210 210 215 215 216 217 216 215 213 214 214 218
260 278 258 252 251 273 254 262 278 299 277 289 320 333 334 341 327 351 11 17 13 10 16 15 36 60 89 130 156 178 181 187 191 182 193 205 207 212 224 226 227 223 224 225 221 217 217 218 222
259 253 234 230 234 251 252 247 278 285 282 289 326 339 345 358 14 23 18 16 19 20 25 27 47 51 62 104 148 169 165 173 176 180 193 207 217 219 225 226 225 225 229 233 232 228 223 222 226
239 243 225 211 221 246 207 248 272 309 305 288 308 325 335 7 32 29 20 17 21 27 29 33 47 50 47 63 98 165 174 178 179 184 200 208 218 232 242 245 240 233 234 238 238 236 232 228 230
232 267 289 288 277 289 233 255 291 331 328 339 331 325 9 37 34 30 25 25 30 28 25 28 38 42 38 37 35 69 140 164 174 186 205 222 234 247 250 247 253 251 244 242 241 238 238 232 230
227 225 301 287 283 267 248 268 272 260 292 338 339 351 27 37 32 29 30 25 31 31 27 25 34 40 39 36 33 40 61 116 143 172 213 242 251 259 264 256 250 253 250 247 247 242 246 245 236
308 251 219 242 270 277 275 255 251 239 246 259 276 256 260 309 353 24 29 24 28 30 27 28 32 37 34 32 29 30 28 42 114 178 227 276 284 269 263 266 264 260 256 255 249 252 255 256 250
190 208 247 248 281 282 282 269 166 214 227 233 243 244 241 225 227 15 25 23 29 30 29 28 31 35 29 29 30 33 30 38 56 42 345 305 293 287 271 265 264 259 257 257 257 257 258 255 258
254 249 239 264 259 256 273 277 109 194 228 229 234 234 237 217 188 83 41 31 30 28 25 27 28 28 19 20 25 32 32 35 38 12 332 315 311 309 290 268 267 265 263 262 262 265 262 256 259
Height
1512 1514 1517 1521 1520 1516 1507 1502 1505 1507 1508 1509 1511 1510 1507 1507 1508 1513 1514 1511 1510 1510 1511 1512 1514 1517 1519 1521 1523 1525 1527 1528 1530 1531 1533 1534 1535 1536 1537 1538 1539 1540 1541 1542 1542 1543 1543 1544 1544
1512 1514 1519 1519 1513 1509 1503 1502 1506 1505 1508 1511 1511 1511 1509 1509 1511 1512 1511 1509 1509 1510 1511 1512 1514 1517 1519 1521 1523 1525 1527 1529 1530 1532 1533 1534 1536 1537 1538 1539 1540 1541 1542 1543 1544 1544 1545 1545 1545
1512 1514 1518 1514 1508 1500 1497 1503 1504 1508 1510 1511 1510 1510 1510 1510 1511 1511 1510 1509 1509 1510 1511 1512 1514 1516 1518 1520 1523 1525 1527 1528 1530 1532 1533 1534 1536 1537 1538 1540 1541 1542 1543 1543 1544 1545 1546 1546 1546
1513 1516 1517 1511 1503 1500 1501 1504 1507 1508 1510 1511 1511 1509 1510 1511 1510 1510 1509 1509 1509 1510 1511 1512 1514 1516 1518 1520 1522 1524 1526 1528 1530 1531 1533 1534 1536 1537 1538 1540 1541 1542 1543 1544 1545 1545 1546 1547 1547
1512 1513 1511 1506 1501 1502 1505 1507 1509 1507 1508 1510 1511 1508 1509 1510 1509 1508 1508 1508 1509 1510 1511 1512 1513 1515 1517 1519 1521 1523 1525 1527 1529 1531 1533 1534 1535 1537 1538 1539 1541 1542 1543 1544 1545 1546 1547 1547 1548
1512 1510 1505 1499 1498 1503 1506 1508 1509 1507 1508 1510 1510 1508 1508 1509 1508 1508 1507 1508 1508 1509 1510 1511 1512 1514 1516 1518 1520 1522 1524 1526 1528 1530 1532 1533 1535 1536 1538 1539 1541 1542 1543 1544 1545 1546 1547 1547 1548
1510 1506 1499 1497 1498 1502 1505 1508 1508 1506 1507 1508 1509 1508 1507 1508 1507 1507 1506 1507 1507 1508 1509 1510 1511 1513 1515 1517 1519 1521 1523 1525 1527 1529 1531 1533 1534 1536 1537 1539 1540 1541 1543 1544 1545 1546 1547 1547 1548
1508 1507 1502 1500 1500 1501 1506 1507 1508 1508 1507 1508 1509 1507 1506 1507 1506 1505 1505 1505 1506 1506 1507 1508 1509 1511 1513 1515 1517 1519 1521 1524 1526 1528 1530 1531 1533 1535 1537 1538 1539 1541 1542 1543 1544 1545 1546 1547 1548
1509 1507 1499 1499 1501 1502 1506 1506 1507 1507 1507 1507 1506 1506 1506 1505 1504 1503 1503 1504 1504 1505 1505 1506 1508 1509 1511 1513 1515 1517 1519 1522 1524 1526 1528 1530 1532 1533 1535 1536 1538 1540 1541 1542 1543 1545 1546 1546 1547
1508 1502 1498 1502 1503 1503 1506 1506 1506 1506 1504 1504 1504 1504 1503 1502 1502 1502 1501 1501 1502 1502 1503 1504 1505 1507 1508 1510 1512 1514 1517 1519 1521 1523 1525 1528 1530 1531 1533 1534 1536 1538 1540 1541 1542 1543 1545 1546 1546
1505 1501 1502 1504 1505 1505 1505 1505 1505 1504 1501 1501 1501 1501 1501 1500 1499 1499 1499 1499 1499 1499 1500 1501 1502 1504 1505 1507 1509 1511 1513 1516 1518 1520 1523 1525 1527 1529 1531 1532 1534 1536 1538 1539 1541 1542 1543 1544 1545
1504 1504 1504 1504 1505 1505 1505 1504 1503 1501 1499 1499 1499 1498 1497 1497 1496 1495 1495 1495 1496 1496 1497 1498 1499 1500 1502 1504 1506 1508 1510 1512 1514 1517 1519 1522 1524 1526 1528 1529 1531 1533 1535 1537 1538 1540 1541 1542 1543
1503 1502 1503 1503 1504 1504 1503 1502 1501 1497 1497 1496 1495 1494 1494 1493 1492 1491 1491 1492 1492 1492 1493 1495 1496 1497 1498 1500 1502 1504 1506 1508 1511 1513 1516 1518 1520 1522 1524 1527 1528 1531 1533 1534 1536 1537 1539 1540 1540
1501 1501 1501 1501 1501 1501 1500 1498 1498 1493 1494 1493 1491 1491 1490 1489 1489 1488 1488 1488 1488 1489 1489 1490 1492 1493 1495 1496 1498 1500 1502 1504 1507 1509 1511 1514 1516 1519 1521 1523 1525 1528 1530 1531 1533 1534 1536 1537 1537
1501 1500 1498 1498 1498 1498 1499 1493 1492 1491 1491 1489 1488 1487 1486 1486 1485 1485 1484 1484 1485 1485 1486 1486 1487 1489 1490 1492 1494 1496 1498 1500 1503 1505 1507 1510 1512 1515 1517 1519 1522 1524 1526 1528 1530 1532 1533 1534 1534
1499 1497 1494 1493 1495 1495 1498 1487 1487 1488 1487 1485 1485 1484 1483 1483 1482 1481 1481 1481 1481 1481 1482 1483 1483 1484 1486 1488 1489 1491 1494 1496 1498 1501 1503 1506 1508 1511 1513 1515 1518 1520 1523 1524 1526 1528 1529 1530 1531
1495 1492 1490 1491 1492 1492 1493 1486 1485 1485 1484 1482 1481 1481 1480 1479 1479 1478 1478 1478 1477 1478 1478 1478 1479 1480 1482 1484 1485 1487 1490 1492 1494 1496 1499 1501 1504 1507 1509 1511 1514 1516 1518 1520 1522 1523 1525 1526 1527
1491 1489 1490 1489 1490 1490 1489 1485 1483 1483 1482 1480 1479 1478 1477 1477 1476 1475 1474 1474 1474 1474 1474 1475 1476 1476 1478 1480 1482 1483 1486 1488 1490 1492 1495 1497 1500 1503 1505 1507 1510 1512 1514 1516 1517 1519 1521 1522 1523
1491 1491 1489 1487 1489 1489 1486 1484 1481 1480 1479 1477 1476 1476 1475 1475 1474 1472 1471 1471 1471 1470 1471 1471 1472 1473 1474 1476 1478 1480 1482 1484 1486 1489 1491 1494 1496 1498 1501 1503 1506 1508 1510 1511 1513 1515 1516 1518 1519
1493 1492 1488 1487 1488 1488 1484 1481 1478 1478 1477 1476 1474 1474 1473 1472 1471 1470 1469 1468 1467 1467 1467 1468 1469 1470 1471 1473 1475 1477 1479 1481 1483 1485 1487 1490 1492 1494 1497 1499 1501 1503 1505 1507 1509 1510 1511 1513 1514
1491 1490 1488 1488 1487 1486 1484 1476 1474 1474 1474 1474 1473 1472 1472 1471 1470 1468 1467 1466 1466 1465 1465 1466 1466 1467 1469 1471 1472 1474 1476 1478 1481 1483 1484 1487 1488 1490 1492 1495 1497 1499 1500 1502 1503 1505 1506 1507 1509
1488 1488 1488 1488 1487 1482 1484 1475 1470 1471 1471 1471 1471 1470 1470 1469 1469 1467 1466 1465 1464 1464 1464 1464 1464 1465 1466 1468 1470 1471 1473 1475 1477 1479 1481 1483 1485 1487 1489 1491 1492 1494 1495 1496 1498 1500 1501 1502 1503
1489 1489 1488 1487 1487 1485 1481 1479 1469 1470 1469 1469 1469 1469 1468 1468 1467 1466 1465 1464 1464 1463 1462 1462 1463 1464 1464 1466 1467 1469 1471 1473 1475 1476 1478 1479 1481 1483 1485 1486 1487 1489 1490 1492 1493 1494 1495 1496 1497
1490 1489 1487 1486 1484 1481 1478 1477 1468 1467 1468 1468 1469 1468 1467 1467 1466 1465 1465 1464 1463 1462 1461 1461 1461 1462 1463 1464 1466 1467 1469 1470 1472 1473 1475 1476 1478 1479 1481 1482 1483 1484 1485 1486 1487 1488 1489 1490 1491
1490 1488 1482 1479 1477 1472 1478 1476 1469 1468 1469 1469 1469 1468 1467 1466 1465 1465 1464 1463 1462 1461 1460 1460 1460 1461 1462 1463 1464 1466 1467 1468 1469 1470 1472 1473 1474 1475 1476 1478 1479 1480 1480 1481 1482 1483 1483 1484 1484
1488 1487 1482 1475 1470 1469 1475 1471 1467 1470 1470 1470 1470 1468 1467 1466 1466 1465 1464 1463 1462 1461 1460 1460 1460 1460 1461 1462 1463 1463 1464 1465 1466 1467 1468 1469 1470 1471 1472 1474 1475 1475 1476 1477 1477 1477 1477 1478 1478
1487 1486 1487 1483 1480 1473 1466 1468 1467 1469 1469 1470 1469 1469 1468 1467 1467 1466 1465 1464 1462 1461 1460 1460 1460 1461 1461 1462 1462 1461 1462 1463 1464 1464 1465 1466 1467 1468 1469 1470 1471 1471 1471 1472 1472 1472 1472 1472 1472
1490 1488 1487 1484 1476 1467 1463 1464 1463 1466 1468 1469 1469 1469 1468 1468 1467 1466 1465 1464 1463 1462 1461 1461 1461 1461 1461 1461 1461 1460 1460 1460 1461 1462 1463 1464 1464 1465 1465 1466 1466 1467 1467 1467 1467 1466 1466 1467 1466
1490 1489 1487 1484 1480 1470 1463 1461 1462 1465 1467 1468 1469 1469 1469 1468 1468 1467 1466 1465 1464 1463 1462 1462 1461 1461 1460 1460 1459 1459 1459 1459 1459 1460 1460 1461 1461 1461 1461 1462 1462 1462 1462 1462 1462 1461 1461 1461 1460
1488 1487 1486 1483 1480 1478 1469 1465 1465 1467 1468 1468 1468 1469 1469 1468 1468 1467 1466 1465 1465 1464 1463 1462 1461 1461 1460 1459 1459 1458 1458 1458 1458 1458 1458 1458 1458 1458 1458 1458 1458 1458 1457 1457 1457 1456 1456 1455 1455